Theta_e
309 310 314 313 318 320 320 319 314 315 314 310 312 313 311 311 310 310 311 311 308 308 308 302 299 299 298 298 297 297 297 296 297 296 296 296 295 295 295 295 295 294 294 293 293 294 294 294 294 294 294 294 293 293 293 293 293 293 292 292 292 291 291 291 291 291 291 290 290 290 290 290 290 290 289 289 289 289 289 289 288 288 288 288 288 287
313 312 318 317 317 315 315 317 312 310 311 310 310 311 310 310 309 308 308 311 310 308 305 299 299 299 297 297 296 296 297 296 296 296 296 295 295 295 294 295 295 294 293 292 293 293 294 294 294 294 293 293 293 292 292 292 292 292 292 292 291 291 291 291 291 290 290 290 290 290 290 290 290 290 290 289 289 289 289 289 289 288 288 287 287 287
316 315 318 313 310 310 310 313 312 310 310 310 309 308 310 311 311 310 308 310 311 309 305 299 299 299 297 297 296 296 296 296 296 296 296 295 295 294 294 294 294 294 294 292 292 292 292 292 291 292 291 292 293 292 292 292 292 292 291 291 291 291 291 290 290 290 290 290 290 290 289 290 289 289 289 289 289 289 289 289 289 289 288 288 287 287
314 316 313 308 309 309 310 311 310 309 309 310 309 308 312 311 310 312 311 308 308 308 305 300 299 300 299 298 297 297 296 296 296 296 296 296 295 295 295 295 294 293 293 292 291 290 290 290 289 289 289 290 291 291 290 290 290 290 290 290 289 289 289 289 289 289 289 289 289 289 289 289 289 289 289 289 289 289 288 288 288 288 288 288 287 287
314 313 306 306 310 308 308 310 310 308 311 317 314 309 313 311 307 310 310 308 307 304 303 302 303 301 300 299 297 297 296 296 296 295 296 296 296 296 295 294 293 292 292 291 290 289 288 288 287 287 287 288 289 288 288 288 288 288 288 288 288 288 288 288 288 288 288 288 288 288 288 288 288 288 288 288 288 288 288 288 288 288 288 288 287 287
314 309 303 308 312 311 309 309 311 310 310 318 316 309 312 311 307 307 308 310 310 304 302 304 307 303 300 299 298 297 296 296 296 296 296 296 295 294 293 292 292 291 290 289 289 288 287 287 287 286 286 286 286 286 286 287 287 287 287 287 287 287 287 287 286 286 287 287 287 286 286 286 286 286 286 286 286 286 287 287 287 287 287 287 287 287
308 306 306 311 314 312 311 309 310 310 310 313 311 307 309 309 307 306 305 309 312 309 303 303 306 305 300 299 297 296 296 296 296 296 295 294 293 292 291 290 290 290 289 288 288 287 286 286 286 286 286 285 285 286 286 286 285 285 285 285 285 285 285 285 285 285 285 285 285 285 285 285 284 284 284 284 285 285 285 285 285 286 286 287 287 287
306 307 309 313 315 310 309 309 308 309 313 312 307 306 308 306 305 306 304 305 309 308 305 304 306 307 301 299 298 296 297 297 296 296 294 293 292 290 290 289 289 289 288 288 287 286 286 286 286 285 285 285 285 285 285 285 285 284 284 284 284 284 284 283 283 283 283 284 284 284 284 284 283 283 283 283 283 283 284 284 284 284 285 286 286 286
306 308 309 309 312 310 308 308 306 307 309 309 306 305 305 304 304 306 304 307 307 305 308 306 304 307 303 299 299 298 297 296 296 295 294 292 291 290 289 289 288 288 288 287 286 286 285 285 285 285 285 285 284 284 284 284 284 283 283 283 282 282 282 282 282 282 282 283 283 284 283 283 282 282 282 283 283 283 283 283 283 284 284 284 285 285
305 306 306 304 306 308 308 306 306 306 304 304 303 304 306 305 305 305 305 308 307 307 311 308 303 307 304 298 299 298 297 297 296 294 293 291 290 289 289 288 288 288 287 286 286 286 285 285 285 284 284 284 283 283 283 283 282 282 282 281 280 280 281 280 281 281 282 282 283 282 282 281 281 281 281 281 281 282 282 282 283 283 283 283 284 284
307 305 303 304 304 304 304 303 304 304 302 302 304 306 308 306 306 308 309 307 307 311 313 307 304 307 305 300 300 298 297 298 296 293 292 291 290 289 289 288 288 288 287 286 285 285 285 284 284 283 283 283 282 281 281 280 280 280 280 279 279 279 280 280 280 280 280 280 280 280 279 279 280 280 280 279 279 280 280 281 281 282 282 283 283 283
309 306 304 305 304 302 302 302 302 303 303 305 307 306 305 305 304 307 311 307 306 313 311 303 302 305 305 301 297 295 295 296 295 292 291 291 290 289 289 288 288 288 287 286 285 285 284 283 283 283 282 282 281 280 279 279 279 279 278 278 279 279 279 278 278 278 278 278 278 277 277 277 277 278 278 278 278 278 278 278 279 280 282 282 282 283
312 309 305 304 303 301 302 304 304 305 307 306 308 309 308 310 307 308 313 308 307 312 305 299 301 303 301 296 293 293 292 293 293 291 290 290 290 289 288 288 288 287 286 285 285 284 283 283 282 282 281 280 279 279 278 278 278 278 278 277 277 278 277 276 275 276 276 277 276 275 275 276 276 276 276 276 275 276 276 276 278 279 281 281 281 281
312 310 306 304 304 300 301 304 306 305 305 304 306 309 311 312 310 311 314 305 304 308 301 298 302 303 299 294 292 291 291 292 292 291 290 290 289 290 288 287 287 287 286 285 284 284 283 282 282 281 280 279 278 278 277 277 277 277 277 275 275 276 275 274 274 275 276 275 274 274 275 275 275 274 274 273 273 273 274 275 277 278 279 280 279 279
308 309 305 303 303 302 302 303 302 303 304 303 304 305 307 311 309 310 313 308 305 308 303 301 303 302 299 295 292 291 290 291 291 290 290 289 289 289 287 286 286 286 285 284 284 283 282 281 281 280 279 278 277 277 276 276 276 276 276 274 274 274 274 274 274 275 275 274 273 274 274 273 273 272 272 271 272 272 273 275 276 276 276 277 276 276
305 305 304 302 300 301 304 302 299 301 302 301 301 303 306 309 308 306 307 306 305 308 306 304 301 297 296 294 291 291 290 289 290 290 289 289 288 288 286 285 286 286 285 284 283 282 281 281 280 279 278 277 277 276 276 275 275 276 275 274 273 273 273 273 273 274 273 272 273 273 273 272 271 271 270 271 271 272 273 274 274 274 273 273 273 273
304 305 305 304 301 300 300 300 300 301 303 302 301 304 303 301 305 306 302 300 302 305 304 301 298 295 294 294 291 289 289 288 288 288 288 288 287 287 285 285 285 285 284 283 282 282 281 280 279 278 277 277 276 276 275 275 275 275 274 273 272 272 272 272 272 272 272 272 272 272 271 270 270 269 270 270 271 272 273 273 272 272 271 271 270 270
302 305 306 303 303 301 297 298 301 299 302 303 303 305 301 298 303 306 303 304 305 306 305 301 298 297 297 297 292 289 289 288 287 288 288 287 287 286 284 284 285 284 283 282 282 281 280 279 278 277 277 276 276 275 275 274 274 274 273 272 272 272 272 272 271 271 271 272 271 270 270 269 269 269 270 270 271 272 272 271 270 270 270 269 269 268
300 304 305 301 301 302 298 299 303 300 299 300 300 301 300 302 308 305 304 307 306 306 307 302 297 297 298 297 293 289 288 287 287 287 287 287 286 285 283 283 284 283 282 281 281 280 279 278 278 277 277 276 275 275 274 274 274 273 272 271 271 271 271 270 270 270 271 271 270 269 269 268 268 269 270 271 271 271 270 269 269 268 268 268 267 267
300 302 305 302 299 300 300 302 304 304 302 301 302 301 300 304 308 304 302 305 305 307 307 302 299 298 295 293 291 288 287 286 286 286 286 286 286 284 283 283 284 282 281 280 280 279 278 277 277 276 276 275 274 274 273 273 273 272 271 271 270 270 270 269 270 270 270 269 269 268 267 268 269 270 270 270 269 269 268 268 267 266 266 266 267 267
301 301 304 305 301 299 301 301 300 302 301 303 306 304 301 303 305 302 300 300 303 307 307 304 302 298 292 290 289 287 286 286 285 285 285 286 285 283 282 283 283 282 280 280 279 278 278 277 276 276 275 274 273 273 273 273 272 271 270 270 270 269 269 269 270 270 269 268 268 267 267 268 269 269 269 269 268 267 266 266 265 265 265 266 267 268
300 301 303 305 304 302 302 298 297 299 298 300 304 301 299 302 303 304 302 300 301 304 304 304 304 297 290 288 287 286 286 285 285 285 285 285 285 283 282 282 282 281 280 279 278 278 277 276 276 275 274 273 272 272 272 272 271 270 270 269 269 269 268 269 269 269 268 267 267 266 266 268 269 268 267 267 266 265 265 265 265 265 265 265 267 268
299 300 302 304 302 300 299 296 296 298 297 299 300 298 299 303 303 305 307 303 301 301 300 301 304 296 288 286 286 285 286 285 284 284 284 284 284 282 281 282 281 280 279 278 278 277 276 275 275 274 273 272 272 271 271 271 270 270 269 269 269 268 268 269 268 267 267 267 266 266 266 267 267 267 266 265 264 264 264 264 264 264 265 266 267 268
297 299 301 304 304 302 299 296 296 298 298 300 299 297 297 299 299 302 304 301 301 302 300 301 303 295 287 286 285 285 285 284 284 284 283 284 283 281 282 281 280 280 278 277 277 276 275 275 274 273 272 272 271 271 271 270 269 269 269 268 268 268 268 268 267 267 266 266 265 265 266 266 266 265 264 264 263 263 263 263 263 264 265 266 266 266
297 299 301 304 308 308 306 304 304 303 300 299 298 294 294 296 298 298 298 299 300 298 296 300 302 295 288 286 285 284 284 284 284 283 283 283 282 281 281 280 279 278 277 276 276 275 275 274 273 272 272 271 271 270 270 269 269 269 268 268 267 267 267 266 266 266 265 265 265 265 265 265 264 264 263 263 263 263 263 263 263 264 264 264 264 264
297 299 300 301 304 306 306 305 304 302 298 296 294 292 293 296 297 297 298 302 302 296 294 298 299 293 288 286 285 284 284 283 283 283 282 282 281 281 280 279 278 277 276 275 275 274 274 273 272 272 271 270 270 270 269 269 268 268 267 267 266 266 266 266 265 265 264 264 264 264 264 264 263 262 262 262 262 262 262 263 263 263 263 262 262 262
299 299 298 302 304 303 302 300 298 299 299 297 294 292 292 293 293 296 300 301 297 295 296 295 293 292 289 286 285 284 283 283 282 282 281 281 280 280 279 278 276 275 275 274 274 274 273 273 272 271 270 270 269 269 269 268 267 267 266 266 266 266 265 265 265 264 263 263 263 263 263 262 262 262 262 262 261 261 262 262 262 261 261 261 260 260
300 299 297 300 301 297 297 295 293 295 294 293 292 292 292 292 293 296 298 294 292 295 298 292 289 291 290 285 284 283 283 282 282 281 281 280 279 278 277 276 275 274 274 274 273 273 272 272 271 270 270 269 269 268 267 267 267 266 266 265 265 265 265 264 264 263 263 262 262 262 262 261 261 261 261 261 261 261 262 261 260 260 259 259 259 259
300 299 296 298 297 293 292 291 290 291 290 289 290 290 290 292 293 294 292 290 290 294 295 291 289 290 288 284 283 283 282 282 281 280 280 279 278 277 275 274 274 273 273 273 272 272 272 271 270 270 269 269 268 267 267 266 266 265 265 265 264 264 264 263 263 262 262 262 261 261 261 261 261 261 261 261 260 260 260 259 259 259 259 259 259 259
298 300 298 298 297 293 291 291 290 290 290 289 289 289 289 290 291 291 291 290 290 291 290 288 288 288 285 283 282 282 282 281 280 279 279 278 277 275 274 274 273 273 273 272 271 271 271 270 269 269 269 268 267 267 266 265 265 265 264 264 264 263 263 263 262 262 261 261 260 260 260 260 260 260 260 260 259 259 259 258 258 258 258 258 258 258
296 298 297 297 298 295 292 291 290 290 291 290 289 289 288 288 289 290 291 290 290 291 289 287 287 287 285 282 282 282 281 280 279 279 278 277 276 274 274 273 273 273 272 271 271 271 270 269 269 269 268 267 267 266 265 265 264 264 264 263 263 263 262 262 261 261 260 260 260 260 260 260 260 260 259 259 258 258 258 257 257 257 257 257 257 257
299 299 299 300 301 298 293 292 291 289 291 293 291 289 288 289 288 289 289 289 288 289 289 288 288 287 284 282 281 281 280 279 278 278 277 276 274 274 273 273 272 272 271 271 270 270 270 269 268 268 267 267 266 265 264 264 264 264 263 263 262 262 261 261 260 260 260 259 259 260 260 259 259 259 258 258 257 257 257 257 257 257 257 257 257 257
298 300 300 300 302 300 294 292 291 291 295 297 292 288 288 288 287 287 288 287 286 287 288 288 287 284 281 281 280 279 279 278 277 277 276 275 273 273 273 272 272 272 271 270 270 269 269 268 268 267 267 266 265 264 264 263 263 263 263 262 262 261 260 260 260 259 259 259 259 259 259 259 258 258 257 257 257 257 256 256 256 256 256 256 256 256
297 299 299 297 300 302 297 292 292 296 299 296 289 285 286 288 287 286 287 287 285 285 285 284 283 281 280 280 279 278 278 277 276 276 276 274 273 273 272 272 271 271 270 270 269 269 268 268 267 267 266 265 264 264 263 263 263 262 262 261 261 260 260 259 259 259 259 259 259 259 258 258 257 257 257 256 256 256 256 256 256 256 256 256 256 256
299 299 299 297 297 300 298 295 295 298 297 290 286 285 285 287 287 286 286 285 283 282 282 281 281 280 279 279 278 278 277 276 276 276 275 274 273 272 271 271 271 270 270 269 269 268 268 267 266 266 265 264 264 263 263 262 262 262 261 261 260 260 259 259 259 259 259 259 258 258 257 257 256 256 256 256 256 255 255 255 255 255 255 255 255 256
298 299 298 296 296 295 296 297 295 292 290 288 287 286 285 286 286 285 286 285 282 281 280 279 280 279 278 278 277 277 276 275 275 275 274 273 273 272 271 271 270 270 269 269 268 267 267 266 266 265 264 264 263 262 262 262 262 261 261 260 259 259 259 258 258 258 258 258 258 257 257 256 256 256 255 255 255 255 255 255 255 255 255 255 255 255
296 299 297 295 295 293 295 297 295 291 291 290 288 286 284 285 285 284 286 284 280 279 280 278 278 278 277 277 276 276 275 275 275 275 274 272 272 272 270 270 270 269 269 268 267 267 266 266 265 264 263 263 262 262 262 261 261 261 260 259 259 259 258 258 258 258 258 257 257 256 256 255 255 255 255 255 255 254 254 254 254 255 255 255 255 255
290 293 295 295 294 293 294 295 295 297 297 291 286 284 283 284 283 283 285 284 280 279 279 278 278 277 277 276 276 275 275 274 274 275 274 272 271 271 270 270 269 269 268 267 266 266 265 265 264 263 263 262 262 261 261 261 260 260 259 259 259 258 258 258 258 258 257 256 256 255 255 255 255 255 254 254 254 254 254 254 254 255 255 255 255 255
290 290 293 296 295 293 294 293 294 298 295 288 284 284 283 283 283 282 284 285 280 278 278 278 277 277 276 276 275 274 274 274 274 274 273 271 270 270 269 269 268 268 267 266 266 265 265 264 263 263 262 261 261 261 261 260 260 259 259 258 258 258 258 257 257 257 256 256 255 255 255 254 254 254 254 254 254 254 254 254 254 255 255 255 255 256
293 291 291 293 293 292 292 292 292 293 290 285 283 283 283 282 282 283 287 286 280 277 278 277 276 276 276 274 274 273 273 273 273 273 272 271 270 269 268 268 268 267 266 266 265 265 264 263 263 262 261 261 261 260 260 260 259 258 258 258 258 258 257 257 257 256 255 255 254 254 254 254 254 254 254 254 254 254 254 254 255 255 255 256 256 256
293 291 289 290 292 292 292 292 291 289 287 283 283 283 282 282 283 285 287 283 278 278 278 277 276 276 274 273 273 272 272 272 272 271 271 270 269 268 268 267 267 266 265 265 265 264 263 263 262 261 261 260 260 260 260 259 258 258 258 258 257 257 257 257 256 255 255 254 254 254 254 253 253 253 253 253 254 254 254 255 255 255 256 256 256 256
291 290 289 290 290 289 288 290 291 289 285 282 282 282 282 284 285 285 283 279 278 278 277 276 276 275 273 272 272 272 271 271 271 270 270 269 268 267 267 267 266 265 265 264 264 263 263 262 261 261 260 260 260 260 259 258 258 258 258 257 257 257 256 256 255 254 254 254 253 253 253 253 253 253 253 254 254 254 255 255 255 256 256 256 256 256
287 289 291 290 288 287 288 290 291 289 284 281 282 283 282 283 283 280 278 278 278 277 275 274 274 273 272 272 271 271 270 270 269 269 268 268 267 267 266 266 265 265 264 264 263 263 262 261 260 260 260 260 259 259 258 258 258 257 257 257 257 256 256 255 254 254 254 253 253 253 253 253 253 253 253 254 254 255 255 255 256 256 256 256 257 257
285 287 290 289 287 288 291 291 288 286 283 281 282 282 280 280 280 278 277 277 277 275 274 273 273 272 272 271 270 270 269 269 268 268 267 267 266 266 266 265 264 264 264 263 263 262 261 260 260 260 259 259 259 258 258 258 257 257 257 257 256 256 255 254 254 253 253 253 253 252 252 252 253 253 253 254 254 255 255 256 256 256 256 257 257 257
286 285 286 287 287 287 288 288 286 283 281 280 279 279 278 278 278 277 276 276 275 274 273 272 272 271 270 270 269 269 268 268 268 267 266 266 266 265 265 264 264 264 263 262 262 261 260 260 260 259 259 259 258 258 257 257 257 257 257 256 256 255 254 254 253 253 253 252 252 252 252 252 253 253 254 254 255 255 255 256 256 256 256 257 257 257
284 283 284 285 285 284 284 285 284 282 281 280 278 278 277 277 277 276 275 274 273 272 272 271 271 270 269 269 268 268 268 267 267 266 266 265 265 264 264 264 263 263 262 262 261 260 260 259 259 259 259 258 258 257 257 257 257 257 256 256 255 254 254 253 253 253 252 252 252 252 252 252 253 253 254 254 255 255 255 256 256 256 256 257 257 257
283 283 284 285 284 283 284 284 282 281 281 279 278 277 276 276 276 275 274 273 272 271 271 271 270 269 269 268 268 267 267 267 266 265 265 264 264 263 263 263 263 262 262 261 260 260 259 259 259 259 258 258 257 257 257 257 256 256 256 255 254 254 253 253 253 252 252 252 252 252 252 252 253 253 254 254 255 255 255 256 256 256 257 257 257 258
283 283 284 284 283 283 284 283 280 280 281 279 276 276 276 275 275 274 273 272 271 271 270 269 269 268 268 267 267 267 266 266 265 265 264 263 263 263 263 263 262 261 261 260 259 259 259 258 258 258 258 257 257 257 256 256 256 256 255 254 254 254 253 253 252 252 252 252 252 252 252 253 253 253 254 254 255 255 255 256 256 256 257 257 258 258
283 283 283 283 282 282 283 282 280 280 280 279 277 276 275 274 273 273 272 271 270 270 269 268 268 268 267 267 267 266 266 265 265 264 263 263 263 262 262 262 261 260 260 259 259 259 258 258 258 258 257 257 257 256 256 256 256 255 255 254 254 253 253 253 252 252 252 252 252 252 252 253 253 253 254 254 255 255 255 256 256 257 257 258 258 259
283 283 283 282 282 283 283 281 279 279 280 279 277 275 273 273 272 271 271 270 269 269 268 267 267 267 266 266 266 266 265 265 264 263 262 262 262 262 261 261 260 260 259 259 259 258 258 258 258 257 257 256 256 256 256 256 255 255 254 254 253 253 253 252 252 252 252 252 252 252 252 253 253 253 254 254 255 255 255 256 256 256 257 258 258 259
283 283 282 282 282 282 282 280 278 278 278 278 276 274 272 272 271 270 270 269 268 268 267 266 266 266 266 266 266 265 265 264 263 262 262 261 262 261 260 260 260 259 259 258 258 258 258 257 257 257 256 256 256 256 256 255 255 254 254 253 253 253 252 252 252 251 251 251 252 252 252 253 253 253 254 254 254 255 255 255 256 256 257 258 258 259
Wind_Speed
3 1 3 5 6 7 7 7 6 5 5 3 3 3 4 5 5 5 2 5 1 4 5 6 9 9 9 10 10 7 10 13 11 12 11 9 10 9 10 10 10 10 8 15 24 27 28 28 27 26 24 23 23 23 23 24 25 25 26 26 26 26 25 26 25 24 23 22 21 21 21 21 21 21 21 20 20 20 20 20 20 20 20 20 21 22
4 1 6 7 8 6 5 5 4 4 4 2 3 3 4 4 5 4 0 5 2 4 2 6 12 10 8 8 8 8 11 11 8 10 10 10 10 9 11 11 9 8 7 15 22 25 27 26 25 25 24 22 20 21 22 23 25 25 25 25 24 24 24 24 23 22 20 19 19 19 19 20 21 21 22 22 21 21 21 21 21 21 20 20 21 21
3 4 7 6 4 3 4 4 5 3 3 3 2 1 3 3 3 4 2 5 4 4 2 6 12 8 6 8 9 10 10 7 6 8 8 9 10 9 10 10 9 9 9 11 16 22 27 29 29 29 27 23 18 19 22 22 23 25 25 24 23 23 23 22 20 19 19 17 17 17 17 18 19 20 20 22 22 23 24 23 23 22 21 21 22 22
2 5 5 3 3 5 4 4 6 3 1 2 3 2 3 3 1 3 3 3 4 3 5 9 10 5 5 7 9 9 7 6 7 8 7 7 8 8 7 8 9 11 11 11 12 18 25 29 32 32 32 29 23 23 27 26 25 28 28 27 28 28 27 26 24 24 22 20 20 19 18 19 20 19 20 21 22 24 25 26 25 25 24 23 22 22
5 5 2 2 3 4 2 2 4 3 2 3 4 5 4 3 2 3 2 2 3 3 5 9 7 4 4 6 6 6 6 7 6 7 9 7 6 7 7 8 10 11 11 11 11 15 23 27 30 33 35 36 34 32 33 34 33 33 33 32 32 32 31 31 30 29 28 26 27 26 25 25 25 24 24 25 26 28 28 29 28 27 27 26 24 22
6 4 1 2 4 4 3 1 2 5 1 4 4 6 6 4 3 2 2 3 4 1 3 4 2 2 3 5 4 4 5 6 5 6 8 7 7 8 9 10 10 10 10 11 13 17 22 25 28 32 35 36 36 34 34 36 36 35 35 35 34 34 33 33 33 32 31 31 31 31 30 29 28 27 27 28 30 32 33 33 32 30 29 29 28 26
3 3 3 3 3 5 3 2 4 5 4 2 3 4 6 6 4 2 2 3 2 2 2 2 3 3 1 3 3 3 5 6 5 6 7 7 8 9 10 10 9 9 9 11 15 19 22 24 26 29 31 32 32 32 34 36 36 36 36 36 35 35 35 35 35 34 34 33 33 32 30 28 28 27 28 30 31 32 33 34 34 33 31 30 31 30
1 3 5 4 5 5 2 2 3 6 6 2 3 3 5 3 1 3 4 3 2 2 2 1 3 4 2 2 0 1 5 6 5 7 8 8 8 9 10 9 9 9 9 10 11 16 21 23 25 26 27 29 30 32 33 33 33 33 34 34 34 34 34 34 34 34 34 33 32 31 30 29 29 28 29 31 31 32 33 34 34 34 34 33 32 33
1 2 2 3 4 2 2 3 3 6 2 4 4 3 1 1 2 4 4 2 0 1 3 3 3 4 2 4 2 1 5 5 5 7 8 8 8 9 9 9 9 9 10 11 11 14 20 22 24 25 26 28 30 31 31 30 30 31 32 33 34 33 33 33 34 33 33 32 31 29 29 29 29 29 30 31 31 32 33 34 34 35 35 35 34 35
0 1 1 2 1 2 4 3 4 5 1 2 5 3 3 4 2 3 4 3 2 1 3 4 2 4 2 4 3 2 3 4 4 6 6 6 7 7 9 10 9 8 9 11 14 16 20 23 24 25 27 29 29 29 30 30 31 32 32 34 34 34 33 33 33 32 32 31 29 29 29 30 30 31 31 32 32 32 33 33 34 34 35 36 36 36
3 2 1 2 1 3 2 1 3 4 2 1 4 3 4 4 4 3 2 3 3 1 5 4 1 5 3 3 3 1 1 4 5 5 5 5 7 7 8 9 8 7 7 8 13 17 21 24 26 27 28 28 28 30 32 33 32 32 33 34 35 34 32 32 32 32 31 30 29 29 30 31 32 32 33 33 33 34 34 34 34 34 35 35 36 37
4 3 1 1 1 0 1 1 0 1 2 2 3 3 3 3 3 3 4 3 2 3 5 3 1 6 3 1 1 2 3 4 7 6 5 5 6 6 7 7 6 6 7 7 9 14 19 22 24 25 25 26 28 31 32 33 32 31 31 33 34 32 31 32 33 32 32 30 30 31 32 32 32 32 32 33 33 34 34 35 34 34 34 34 33 34
2 1 2 3 1 1 2 1 2 4 5 4 3 4 2 3 3 2 3 1 2 4 1 1 2 5 3 2 4 5 6 8 7 6 5 5 5 6 7 8 6 6 7 7 8 12 17 18 20 22 23 25 27 29 30 30 30 28 28 31 32 31 31 34 35 33 32 30 31 34 34 33 31 31 32 33 35 35 35 36 36 34 32 31 31 30
3 4 4 3 1 1 2 1 2 2 3 3 1 3 2 2 2 3 3 1 3 2 1 1 3 3 3 2 4 6 6 6 7 6 5 6 6 6 7 7 6 6 7 7 8 12 15 17 19 21 22 24 25 26 28 29 28 26 27 31 32 31 32 35 35 33 30 31 34 35 33 30 31 33 35 37 38 38 38 36 35 33 30 29 30 30
2 4 3 1 1 2 2 1 2 1 1 2 2 4 2 3 3 3 4 2 3 2 2 3 2 2 4 3 3 5 5 4 5 4 5 5 5 5 6 7 6 6 7 7 9 13 16 17 18 20 22 23 24 24 27 29 28 26 27 30 31 32 32 33 33 31 30 34 36 32 28 29 33 38 40 40 38 37 36 35 33 33 31 30 31 32
0 4 4 2 2 1 2 1 2 3 1 1 2 3 1 3 4 1 3 4 3 1 3 2 2 1 2 4 2 3 5 5 5 4 5 5 5 5 6 9 8 6 7 8 9 12 15 16 17 20 22 22 22 23 26 29 27 25 26 29 31 32 32 33 31 30 33 35 31 27 28 34 39 41 40 38 37 35 33 32 32 32 32 34 35 37
1 4 5 3 2 1 1 2 1 2 0 0 1 0 2 3 5 3 1 1 3 1 2 1 4 2 2 3 1 3 5 7 6 6 6 6 6 8 9 10 8 7 8 8 8 11 13 15 17 19 21 21 22 22 25 28 26 24 26 30 32 32 32 32 31 33 34 31 28 29 35 39 41 40 37 36 36 34 30 29 31 34 37 41 42 43
1 4 5 2 0 1 1 1 3 2 2 2 0 3 2 1 4 4 0 3 4 0 3 1 4 4 3 3 1 5 7 8 8 8 8 8 8 9 10 10 7 7 8 8 9 11 12 14 17 20 20 20 20 21 25 27 25 23 26 30 32 32 32 32 33 34 31 28 31 36 39 40 40 37 35 34 32 30 29 32 36 40 45 49 50 49
2 3 6 1 2 3 3 2 3 4 1 2 2 2 1 1 0 1 1 0 1 2 3 3 1 4 3 2 1 6 7 7 9 8 8 9 8 8 9 10 6 6 7 7 7 9 11 15 18 20 19 18 19 23 27 26 24 25 28 30 31 31 31 32 33 31 28 30 35 37 38 40 39 35 32 30 28 29 33 38 43 47 49 51 50 48
1 0 5 3 2 3 4 3 2 4 4 3 1 2 2 3 3 1 1 2 1 2 2 2 1 2 1 1 3 5 5 6 8 7 8 8 7 8 9 8 5 5 6 6 5 7 11 15 19 18 16 17 20 25 28 26 25 28 30 31 31 31 31 33 33 28 28 33 34 35 38 39 36 31 27 26 29 36 41 44 45 46 45 46 46 45
2 1 3 5 3 3 2 2 0 1 3 3 3 3 3 1 0 0 1 1 1 1 2 1 2 2 1 3 5 6 4 5 6 6 6 6 5 7 9 7 4 4 5 5 5 8 11 16 18 15 16 20 24 28 28 26 27 30 30 31 31 31 33 33 30 27 31 34 34 36 40 37 31 26 26 32 40 45 46 44 42 40 40 41 42 43
1 1 2 4 4 2 3 3 1 2 1 1 1 2 1 2 1 1 2 2 1 1 3 2 2 2 2 3 4 5 3 4 5 6 6 6 5 7 8 5 3 4 5 5 6 10 13 17 16 16 21 26 28 30 29 27 28 29 29 30 30 31 33 30 28 30 33 34 34 37 38 34 28 28 34 43 46 44 41 38 38 38 39 40 40 40
0 2 0 4 4 4 6 3 0 1 3 4 3 2 1 1 3 4 2 3 2 1 1 2 1 2 1 3 4 4 2 2 5 6 7 7 5 7 7 4 3 4 5 6 8 12 15 16 16 20 25 28 29 30 28 28 29 29 29 30 30 32 31 28 30 33 31 31 33 34 33 30 28 33 40 41 38 36 35 34 36 38 38 38 36 34
1 2 1 4 4 4 5 4 2 2 4 4 3 3 2 2 1 4 4 2 1 2 1 1 2 3 1 2 4 3 3 3 4 6 8 7 6 7 7 4 4 5 6 8 11 15 16 17 19 23 25 27 29 29 28 28 29 28 27 27 28 30 29 28 31 30 27 29 31 30 29 28 30 34 36 34 32 33 33 34 37 37 35 33 33 33
2 0 1 3 4 5 6 5 5 4 4 3 2 4 3 3 4 1 1 2 1 1 2 2 3 3 3 3 3 4 5 6 5 6 7 6 6 8 5 3 4 6 8 9 11 15 16 16 19 20 22 25 26 26 26 26 27 26 25 26 27 27 27 27 27 25 26 30 30 28 28 28 30 32 32 31 31 33 35 35 35 32 31 35 39 40
1 1 2 2 0 2 3 3 3 3 2 2 2 6 6 5 5 1 1 3 0 2 3 2 3 2 3 2 4 6 7 8 6 6 7 6 7 8 5 5 6 8 10 10 10 12 13 14 17 18 21 23 23 23 25 25 25 25 25 26 26 25 26 26 25 25 28 30 29 29 29 29 30 31 32 31 31 35 36 32 31 34 40 45 45 42
2 1 2 4 5 4 4 4 4 2 1 2 3 7 7 5 4 3 3 2 1 0 3 1 2 2 2 1 6 7 8 8 7 8 9 9 10 8 5 6 8 8 9 9 8 11 12 13 17 19 22 23 23 24 25 25 26 26 26 27 26 24 25 26 26 28 29 29 30 30 31 31 32 32 31 31 33 34 32 30 35 41 43 42 39 38
3 3 2 2 2 3 3 2 2 3 4 3 3 6 7 7 6 7 4 0 2 3 3 3 1 4 3 1 5 7 8 8 8 9 10 11 10 6 5 7 9 9 9 8 9 12 12 13 17 21 23 23 24 25 26 26 26 27 27 27 26 26 27 27 28 29 30 30 30 31 32 32 32 31 31 31 32 32 31 34 38 38 35 34 34 36
5 1 2 1 3 5 3 3 5 8 6 4 5 5 7 8 8 7 3 0 3 2 3 2 3 4 2 2 5 7 8 8 8 9 9 10 8 5 6 8 9 10 10 9 11 12 11 13 18 22 24 23 24 27 28 27 27 28 27 26 25 27 28 28 30 30 31 31 31 32 33 33 32 31 31 31 32 32 33 35 36 34 33 34 34 34
3 1 2 2 4 6 5 5 5 7 6 5 7 6 5 5 6 5 1 2 2 2 3 1 5 5 1 2 5 7 7 7 7 8 10 10 7 5 7 9 9 11 10 8 11 12 11 15 21 23 23 23 25 27 28 29 29 28 26 25 26 28 28 30 31 32 32 33 33 34 34 32 31 31 31 31 32 33 34 35 35 34 34 33 33 33
2 2 1 3 3 3 4 5 6 6 7 6 6 6 5 4 5 4 3 3 3 2 2 3 5 4 1 4 6 7 7 7 7 9 11 8 5 5 8 9 10 12 10 10 12 12 14 18 22 22 22 22 25 27 28 31 31 28 25 26 27 29 30 31 32 33 34 35 35 34 32 31 31 32 32 32 33 34 35 35 35 34 34 34 34 34
4 3 2 5 3 2 1 3 3 4 5 5 6 7 6 4 4 3 2 1 1 3 5 5 5 3 3 6 8 7 7 8 8 11 11 6 5 7 8 9 11 12 12 12 13 12 15 19 21 21 22 23 25 27 29 31 31 28 27 28 29 30 32 33 33 34 36 36 35 33 31 31 33 33 33 34 34 35 35 35 35 35 35 35 34 34
2 2 3 4 2 2 2 2 2 1 3 3 4 5 5 1 3 5 4 2 1 1 2 3 3 3 6 8 8 8 8 8 8 10 9 4 5 7 7 10 13 12 12 13 12 13 16 21 22 22 23 25 27 30 31 30 29 28 29 30 32 34 35 36 36 37 37 36 33 31 31 32 33 35 35 35 35 35 36 36 36 35 35 35 35 35
3 4 2 2 2 3 5 2 2 3 2 4 1 3 4 1 4 8 6 2 1 2 1 2 4 6 8 8 8 10 10 8 9 11 5 3 4 7 8 12 13 12 12 12 13 16 20 23 24 24 24 26 29 31 31 29 28 29 30 32 35 37 37 37 38 38 37 35 32 31 32 33 34 36 36 36 36 36 36 36 36 36 35 36 37 38
4 4 1 1 2 2 4 5 4 2 3 5 3 5 5 0 3 8 5 2 3 4 4 5 6 8 9 8 8 10 9 9 12 10 2 4 6 8 10 13 12 11 12 12 13 18 22 23 24 25 25 27 30 31 30 29 30 31 32 34 36 36 37 38 38 37 35 32 31 31 33 34 36 37 36 36 36 37 37 37 37 38 39 39 40 40
3 3 1 1 2 1 3 4 1 3 2 1 1 6 6 3 5 8 4 2 2 3 4 5 7 7 9 8 8 8 9 10 10 4 2 6 9 9 10 11 11 13 14 13 16 21 23 23 23 24 27 29 31 31 30 31 31 32 34 35 35 35 36 38 38 35 32 30 31 34 35 36 37 38 38 38 38 38 38 38 40 41 42 42 41 41
3 3 2 2 1 1 1 2 3 2 3 2 2 4 4 3 4 6 3 0 2 3 4 6 8 8 8 8 7 8 10 11 6 2 4 9 11 11 11 12 14 16 16 16 20 23 24 24 23 24 28 30 31 30 30 31 32 32 34 35 34 35 36 36 35 33 31 31 34 37 37 37 38 40 40 40 40 41 41 41 42 43 42 41 41 42
5 3 3 2 2 2 2 2 3 4 3 3 1 3 5 4 4 3 2 1 2 5 5 6 8 10 10 9 9 10 11 10 6 1 4 9 11 12 14 16 17 17 16 19 23 23 23 23 23 26 29 29 29 29 30 30 31 32 33 33 33 35 35 34 32 31 33 37 40 41 40 39 40 41 41 41 42 43 43 43 43 42 41 41 41 43
8 5 4 4 3 2 3 1 1 2 3 3 2 5 7 5 3 1 1 2 1 4 5 6 8 10 9 9 10 9 8 10 9 6 6 8 11 14 17 19 19 17 18 22 24 22 22 22 24 28 30 29 30 30 30 30 31 31 31 31 32 33 33 32 30 32 38 43 44 43 41 41 41 40 40 41 43 43 43 43 42 42 42 41 41 41
7 5 4 5 3 1 1 0 2 3 2 1 2 6 8 5 1 3 3 4 2 5 6 6 8 9 7 7 8 6 5 6 9 11 12 13 14 16 18 19 18 19 23 25 24 22 22 23 26 29 31 31 32 32 32 32 32 31 31 31 31 31 30 31 32 36 42 44 44 43 43 42 41 40 40 41 42 42 42 42 42 43 42 41 40 39
4 3 3 4 3 2 1 1 4 3 1 1 4 6 7 5 3 2 3 5 4 8 7 6 7 7 6 6 6 5 5 6 9 13 16 16 16 17 19 19 18 21 24 24 23 23 23 25 26 28 29 31 32 32 34 35 34 32 31 31 31 31 31 33 36 40 43 43 42 43 44 43 42 41 41 40 40 40 41 41 41 42 41 40 39 38
2 3 2 2 2 2 1 1 4 3 1 2 6 5 3 3 2 2 4 4 7 9 8 7 7 5 5 6 6 5 7 9 10 12 13 14 16 17 19 20 21 23 24 22 22 24 25 27 28 28 29 30 30 31 34 35 33 32 32 32 32 33 35 38 40 43 43 42 42 43 43 43 43 41 40 40 39 39 40 40 40 40 39 38 38 38
1 1 3 2 1 1 2 2 3 3 2 3 5 4 2 1 1 3 5 5 7 7 6 5 6 5 5 7 7 8 10 10 9 9 10 13 16 18 19 21 22 24 24 23 24 26 28 29 30 30 30 30 30 31 33 33 32 31 31 31 33 36 38 40 42 43 43 43 42 43 42 42 42 41 39 39 38 38 39 39 39 39 38 37 36 37
1 2 1 3 1 2 1 1 1 1 2 3 3 2 1 1 1 3 5 6 5 4 4 4 5 5 6 7 9 10 9 9 9 9 10 13 16 18 20 22 22 23 22 23 26 28 29 30 30 30 31 30 31 33 33 31 30 31 31 32 35 39 41 42 42 43 43 43 43 43 42 42 41 39 38 37 37 37 38 39 38 38 37 37 34 33
1 2 2 3 2 2 4 4 2 1 1 1 1 2 1 2 1 1 4 6 4 3 3 4 5 6 7 8 9 9 8 8 9 10 11 13 16 19 20 21 22 21 22 24 27 29 29 29 29 29 30 31 32 33 32 30 29 30 31 34 37 39 41 42 43 43 43 43 43 42 42 41 40 38 36 36 36 36 37 37 36 36 37 37 34 30
1 1 2 1 3 4 4 3 1 2 2 1 2 2 0 1 2 1 2 3 3 3 4 5 5 6 8 8 8 7 8 9 9 10 12 14 17 19 21 21 21 21 23 25 27 29 30 30 29 28 30 33 34 33 31 30 29 29 32 36 38 39 40 41 43 43 43 43 42 41 41 40 39 37 36 36 36 36 36 35 34 35 35 34 33 31
1 2 1 1 2 3 3 1 3 4 5 1 3 0 0 1 0 1 2 2 4 4 5 6 7 9 9 8 8 8 9 9 9 10 12 14 17 19 20 20 21 22 24 26 27 29 30 29 29 29 32 34 35 33 31 30 29 29 33 37 39 40 40 41 42 43 43 42 41 41 39 37 36 36 36 36 36 35 36 36 35 34 33 32 32 32
1 1 1 1 1 3 4 2 4 7 5 2 4 1 2 2 2 3 4 5 6 6 7 8 10 11 9 8 8 8 8 9 10 10 11 14 17 18 19 20 21 23 26 27 28 29 28 27 29 30 32 34 35 34 32 32 31 32 35 37 39 40 41 42 43 43 43 42 41 40 37 35 34 35 36 38 36 34 35 36 36 34 33 31 30 29
1 1 1 1 2 4 5 4 6 7 4 2 2 3 2 2 3 3 4 6 6 6 7 9 10 11 10 10 11 9 7 8 11 12 14 16 17 18 20 21 23 24 27 28 28 28 27 28 30 31 32 34 34 33 33 33 33 34 36 38 39 40 40 42 44 43 42 41 40 38 36 34 34 35 37 37 36 34 33 32 32 33 32 32 30 30
2 1 1 1 2 4 3 2 4 5 4 3 3 3 3 3 4 3 4 5 5 5 7 8 9 10 10 11 12 11 8 9 12 14 16 17 17 19 21 23 25 27 28 28 28 28 28 29 30 32 34 35 33 33 34 34 34 36 37 38 39 39 40 42 44 42 40 39 38 37 35 34 35 37 36 36 36 37 35 33 30 29 29 31 33 34
2 2 2 1 3 5 4 1 0 2 5 6 5 3 4 5 5 3 3 4 4 6 8 8 7 8 9 11 13 12 9 11 14 17 17 17 18 20 22 23 26 27 28 28 28 28 30 30 31 32 34 34 33 33 34 35 35 37 37 38 38 38 39 41 42 40 38 38 37 35 33 34 35 36 36 35 35 36 37 36 35 32 30 30 33 35
Wind_Direction
85 95 249 218 219 223 213 199 184 173 162 164 188 205 246 249 271 275 267 306 317 99 33 60 70 39 22 16 10 8 42 55 57 64 64 64 66 64 68 67 65 68 63 61 61 60 58 56 52 48 46 50 54 53 51 51 49 45 40 36 34 30 25 23 20 18 16 13 10 6 4 1 359 358 355 353 350 347 343 338 333 327 324 321 317 315
63 168 242 229 226 221 201 187 142 118 133 133 197 235 275 237 257 278 263 312 316 105 59 79 74 44 28 28 16 25 49 45 42 65 69 68 70 67 68 66 64 65 57 58 55 50 48 46 44 42 39 42 52 56 55 55 52 45 39 36 33 27 23 21 18 15 13 10 6 1 358 354 352 353 351 350 351 349 346 343 338 332 326 320 317 315
10 248 262 260 223 137 87 115 117 110 131 130 155 195 277 257 276 300 332 330 346 91 112 90 79 54 26 38 34 34 51 47 34 60 69 70 75 69 67 68 65 62 51 49 46 42 40 36 34 33 30 31 47 57 53 50 47 40 36 33 29 24 20 16 12 8 2 357 352 348 345 342 340 341 343 342 344 344 340 338 335 332 328 323 318 316
291 251 272 282 149 119 69 65 100 89 71 168 171 168 259 268 292 284 305 329 360 65 126 108 89 67 17 36 44 28 39 57 46 60 62 61 74 71 69 67 60 58 49 43 41 37 36 35 34 32 30 35 46 49 42 39 38 35 33 32 30 29 27 24 20 15 9 2 354 346 340 337 333 330 330 332 335 336 334 332 329 326 323 319 316 316
244 248 270 37 71 119 126 43 108 151 301 273 201 193 227 248 210 217 273 316 17 44 126 116 89 53 15 32 42 11 23 54 44 61 64 51 59 65 60 54 53 55 48 43 40 34 37 39 37 36 37 42 46 42 38 37 37 36 34 33 31 29 27 25 22 18 15 11 7 1 356 352 346 339 335 333 332 333 331 329 326 321 317 313 308 308
263 276 331 69 45 68 125 253 213 175 237 305 237 205 197 177 162 160 347 20 58 57 178 132 90 15 9 33 38 355 33 54 24 50 64 45 41 46 48 48 47 48 46 44 44 42 42 40 38 37 37 39 40 37 36 37 35 33 30 27 24 22 20 17 14 12 10 8 6 5 2 358 352 345 340 337 332 331 330 327 325 321 317 311 305 301
274 344 35 110 97 68 79 270 243 160 129 306 259 181 150 130 122 123 76 66 99 217 215 143 151 150 61 40 26 357 61 62 29 45 50 38 42 45 48 50 43 39 39 43 46 47 44 40 38 36 35 36 35 33 34 33 30 27 24 22 20 17 15 12 10 8 7 6 4 3 0 357 352 344 339 337 334 331 330 328 326 324 320 314 308 302
233 357 23 60 76 64 44 291 231 139 119 233 233 135 124 113 144 165 143 153 208 236 320 351 132 129 129 145 168 28 78 68 49 45 35 35 47 50 51 47 41 38 38 44 48 46 43 41 39 37 35 35 33 30 30 28 25 22 20 19 18 16 13 11 8 6 6 4 1 359 356 352 349 343 336 335 334 333 332 330 328 326 323 319 314 307
228 354 359 65 58 34 252 238 182 132 116 240 203 137 115 121 187 164 144 170 240 25 304 285 136 114 119 165 185 67 88 91 72 50 36 42 48 51 50 41 39 40 42 49 51 46 44 41 38 37 35 33 31 28 26 24 22 19 18 16 13 12 9 6 4 2 2 1 358 356 354 350 346 343 339 337 336 335 333 330 328 327 324 322 319 313
354 255 223 117 99 251 248 246 175 154 249 227 138 104 47 62 79 93 114 133 56 47 240 245 154 117 128 182 191 98 112 141 106 65 44 50 54 52 46 36 34 37 44 50 48 47 45 39 36 34 32 30 27 25 24 21 18 15 13 10 7 7 4 2 3 3 3 3 1 359 356 351 348 346 344 342 340 338 335 331 328 327 323 321 319 317
314 295 197 107 175 221 240 270 179 178 247 134 105 60 35 39 40 46 67 93 70 296 252 254 136 103 129 193 185 174 181 156 125 88 49 42 50 50 42 34 30 37 48 47 45 46 41 36 33 30 29 27 24 22 21 16 12 10 9 6 5 5 6 6 6 5 3 3 1 358 355 351 348 346 343 341 339 337 335 331 328 327 324 321 319 318
346 3 271 292 279 153 54 14 137 13 15 85 76 45 33 349 17 28 355 44 102 258 269 258 100 89 110 169 79 343 358 87 108 97 68 47 44 46 40 31 27 43 53 48 46 44 38 33 29 29 28 26 22 19 15 12 9 8 7 6 4 5 6 3 359 358 356 356 356 353 350 347 344 342 341 340 337 335 333 329 325 324 323 323 322 321
350 279 299 326 323 77 65 4 347 5 32 54 58 60 45 341 6 355 314 340 212 242 245 228 45 72 86 64 50 37 45 74 95 99 87 66 54 52 39 23 25 52 54 47 48 42 36 31 28 29 28 23 20 16 12 9 7 7 7 5 2 0 358 355 352 352 352 353 353 349 346 345 343 343 342 340 336 333 330 327 323 320 320 323 326 326
336 303 332 8 336 32 79 66 338 338 10 13 93 114 85 65 46 307 277 278 270 247 207 349 24 90 116 69 55 66 68 83 101 106 94 72 66 62 41 20 26 55 57 49 47 41 34 30 30 29 25 20 15 12 10 7 4 5 4 2 359 355 352 351 350 350 351 350 348 346 345 346 346 343 339 335 331 328 327 326 324 322 323 325 325 326
344 300 325 34 303 5 54 131 159 166 347 317 176 132 128 152 146 253 238 220 254 260 305 337 24 147 155 125 104 99 87 81 92 100 85 68 67 69 44 22 28 52 57 48 42 37 30 30 33 27 20 16 11 10 9 4 1 1 0 359 356 352 349 349 349 350 349 345 343 345 347 346 341 337 333 330 327 327 326 326 327 327 328 327 326 324
131 261 272 301 282 46 37 262 121 87 39 260 161 96 84 181 145 176 195 180 195 282 318 343 64 46 110 111 124 125 94 66 59 61 60 54 51 53 33 20 25 44 50 43 36 31 27 30 33 24 14 11 8 8 6 1 357 355 356 355 352 349 347 347 348 347 343 341 343 347 344 339 336 333 331 328 327 327 326 325 327 328 326 325 324 321
30 280 291 327 319 72 109 245 16 47 186 86 84 160 237 179 116 106 248 43 79 89 280 137 114 90 111 133 152 94 70 50 41 33 33 35 34 36 26 15 19 40 44 38 31 26 25 29 25 16 9 6 6 6 1 356 353 352 354 352 348 346 345 346 346 343 341 342 345 343 338 336 335 333 330 327 327 327 326 327 328 327 324 322 321 318
136 277 298 356 272 298 161 177 7 14 122 85 252 224 228 96 92 100 149 1 33 200 256 117 138 167 169 173 112 47 39 30 27 19 18 22 28 33 22 6 13 48 42 25 26 25 24 24 14 5 3 3 3 1 355 351 350 352 352 349 346 345 344 344 342 340 341 344 342 338 336 335 333 331 329 328 328 328 328 329 327 325 322 320 318 317
124 282 301 301 187 300 342 70 2 335 35 95 206 212 87 101 272 15 89 329 341 259 282 344 127 176 181 183 75 41 34 25 17 12 13 14 25 33 13 354 13 55 35 13 20 22 20 16 3 355 356 360 1 357 351 349 350 350 348 347 346 344 342 341 339 339 341 341 338 335 333 333 332 331 330 331 331 330 329 327 325 322 320 318 317 317
78 165 289 277 222 309 352 52 4 321 342 15 18 348 37 141 174 210 152 175 214 248 267 337 336 206 220 117 103 72 50 34 15 7 8 6 25 32 1 348 18 47 24 13 14 15 16 5 352 349 358 0 357 352 348 348 350 348 346 346 345 343 341 339 338 339 339 338 336 333 332 332 332 332 332 332 331 328 326 324 322 321 319 319 319 319
3 123 253 286 328 351 349 19 29 303 337 352 19 6 340 332 322 296 42 100 137 191 195 212 263 220 67 70 102 92 70 49 22 360 356 357 29 27 355 349 25 27 14 13 7 7 4 352 346 355 4 359 353 350 348 349 348 346 345 345 343 341 339 337 337 338 337 335 333 332 332 332 333 333 330 326 325 325 325 323 323 323 321 320 321 322
348 138 226 291 336 345 283 283 217 183 177 141 90 27 307 294 18 50 313 321 71 146 175 174 252 226 67 57 89 87 81 60 26 359 349 353 16 10 350 353 30 22 14 7 1 360 351 346 352 4 1 355 351 349 347 346 346 344 343 342 341 339 337 336 337 336 334 333 332 332 333 333 332 329 326 324 323 325 326 324 323 324 323 321 323 325
64 95 88 279 278 266 277 297 100 151 117 108 84 49 82 56 81 114 226 275 346 344 179 140 268 245 71 58 72 56 24 36 26 8 353 348 359 355 345 357 22 17 11 359 355 353 348 352 1 1 355 352 350 346 344 344 344 342 341 340 339 338 336 336 335 333 332 332 331 330 331 330 327 325 324 324 324 324 324 321 321 322 323 322 323 325
28 67 15 295 295 306 314 344 24 47 77 73 31 31 51 357 58 143 174 200 258 316 26 56 293 254 184 99 79 50 12 6 14 10 355 342 347 347 343 0 10 3 0 354 353 351 353 1 2 355 352 350 345 342 341 341 340 338 338 338 337 334 333 333 332 331 332 331 328 326 326 325 324 323 323 323 322 321 320 318 319 321 322 323 323 323
329 337 62 356 342 344 345 352 349 350 34 58 10 359 359 9 31 78 166 67 50 296 81 138 256 265 167 134 66 36 14 3 3 5 351 340 342 340 343 4 1 360 357 351 352 353 356 0 355 350 348 344 340 338 339 339 338 337 338 337 334 331 330 332 332 332 332 329 326 324 323 322 322 322 321 321 320 319 318 317 318 320 321 321 320 318
271 207 90 76 325 300 304 305 296 296 351 40 22 357 359 23 26 330 265 54 74 288 41 143 226 270 175 149 18 15 5 355 349 349 345 343 342 341 355 8 1 2 353 345 350 351 349 350 347 344 343 339 338 339 339 339 339 338 337 335 333 330 330 331 331 332 331 328 326 324 322 321 321 321 319 319 318 317 316 316 318 318 316 315 315 313
106 46 61 137 172 205 230 258 268 252 39 42 5 356 1 2 11 69 92 60 176 308 358 216 205 314 245 279 1 0 355 349 344 348 349 345 342 348 11 6 357 356 343 339 349 344 340 345 344 343 342 340 341 342 341 340 339 337 335 333 331 330 331 330 330 330 329 327 325 323 321 320 319 319 318 317 317 316 315 313 314 314 313 313 313 311
80 22 1 117 167 256 247 274 354 63 72 70 43 11 4 357 18 68 83 353 131 92 315 260 338 346 297 353 7 350 348 350 346 349 346 338 338 352 10 357 350 344 338 345 350 342 342 346 344 342 342 341 342 341 340 339 338 336 333 330 330 331 331 331 330 329 327 326 324 321 320 319 317 317 316 316 315 315 313 312 312 313 312 311 311 309
102 53 311 71 26 357 16 47 72 85 80 65 63 37 15 17 37 67 87 13 103 131 247 278 341 323 309 24 6 351 350 345 343 344 336 329 336 358 357 349 344 339 340 348 346 343 346 347 343 340 339 339 341 340 339 338 336 334 332 330 331 332 331 331 330 328 327 325 323 321 319 318 317 317 316 315 315 314 313 312 312 312 311 309 309 308
119 318 276 110 45 20 24 20 61 97 98 61 48 33 22 35 52 66 46 343 13 218 213 8 325 289 196 46 355 355 351 337 339 336 324 327 343 360 349 342 339 338 342 348 346 345 347 344 340 338 336 338 340 339 338 336 335 333 331 331 332 331 332 332 329 328 326 324 323 321 319 318 318 318 317 316 316 314 314 313 312 311 310 309 309 308
37 338 299 101 59 13 20 25 41 85 106 87 53 26 20 39 49 49 23 356 356 290 294 4 317 277 100 37 354 346 338 330 333 327 322 332 349 349 343 339 338 340 345 348 345 342 342 340 337 336 336 338 338 338 337 335 334 332 332 332 333 332 332 331 328 326 325 324 322 321 321 320 320 318 318 317 316 314 314 313 312 311 310 309 308 308
26 1 2 62 64 303 353 83 76 81 92 80 39 12 5 26 38 11 331 314 291 284 316 337 319 299 1 358 338 327 325 329 331 325 324 335 354 347 342 340 340 344 347 344 340 339 340 339 337 337 337 338 338 338 338 335 333 332 332 333 332 331 330 329 328 326 325 325 323 322 323 322 321 319 318 317 316 315 314 314 312 310 309 308 308 308
65 67 21 49 74 286 313 121 159 57 20 337 342 349 325 334 41 353 314 268 238 261 305 304 301 332 346 336 326 323 330 336 333 323 323 342 354 341 338 342 343 346 346 340 336 339 340 337 337 338 338 338 338 338 337 335 333 332 332 331 331 331 330 329 328 327 325 325 324 323 324 323 321 319 318 316 316 315 315 314 311 310 309 308 308 307
65 83 74 55 81 278 298 1 68 42 336 260 218 10 307 236 43 352 314 260 22 40 48 317 325 342 339 332 330 327 329 337 326 314 320 34 357 336 345 350 346 343 340 336 337 341 339 336 336 337 338 338 338 336 335 334 333 331 330 330 330 331 330 329 328 327 325 325 325 324 324 323 320 318 317 316 316 315 314 313 311 309 308 307 306 306
43 55 62 64 80 267 307 26 36 322 247 211 148 26 343 280 38 339 298 181 60 31 30 351 332 333 332 327 327 323 323 326 317 307 328 49 6 358 356 347 342 339 335 335 340 340 337 336 336 336 337 338 336 335 334 334 333 331 329 330 330 330 330 329 327 326 325 325 326 325 324 322 320 318 317 316 316 315 313 312 310 309 308 307 306 305
72 74 86 77 67 329 7 34 323 266 259 218 38 15 1 5 6 346 331 123 49 28 28 346 323 324 326 319 322 327 322 318 311 291 88 31 13 14 358 339 337 336 332 337 341 337 335 336 337 337 337 336 335 334 333 332 332 330 329 330 330 329 330 329 326 326 327 326 326 325 324 322 319 317 317 317 316 314 313 311 310 309 309 308 307 305
89 97 73 53 51 82 73 276 279 342 356 331 357 10 355 327 333 337 320 243 40 35 20 343 325 324 323 319 328 333 324 318 304 188 72 22 11 7 350 337 333 328 330 339 338 334 334 335 336 337 335 333 332 332 332 332 331 331 329 329 330 330 330 328 326 327 327 327 326 325 323 321 319 317 316 316 316 314 313 312 310 310 310 309 307 306
53 69 81 66 26 74 76 325 344 8 324 265 219 331 326 303 287 289 261 245 35 29 6 343 331 327 328 333 339 339 334 328 314 299 34 15 5 357 345 337 332 329 335 341 336 335 336 336 336 335 333 331 330 331 332 332 332 331 329 329 329 330 329 327 327 328 327 326 324 323 322 321 319 317 316 316 315 314 313 312 311 311 311 309 306 305
35 41 75 73 32 49 73 11 294 250 245 225 248 311 321 307 281 314 330 264 353 11 354 346 337 331 336 340 340 346 345 329 315 322 4 9 3 355 342 333 333 337 341 340 337 336 336 336 335 333 332 332 332 332 334 333 333 332 330 329 330 329 328 328 328 328 326 324 323 322 322 321 320 318 317 316 315 314 313 313 312 312 311 309 307 306
20 9 31 51 36 25 84 272 261 237 209 190 307 313 311 301 341 47 344 277 302 355 353 351 338 332 344 348 339 342 341 317 307 317 337 349 352 348 338 331 335 341 340 337 337 337 336 336 335 333 333 334 333 334 336 335 335 334 331 330 329 328 329 329 328 326 325 323 323 323 323 322 321 320 319 317 316 315 314 313 313 313 312 311 309 308
10 356 26 61 43 355 52 253 283 276 195 314 318 307 305 319 46 64 272 269 328 347 349 352 337 335 353 349 331 321 312 304 301 310 326 338 339 336 333 332 335 338 336 334 335 337 337 336 335 334 334 334 334 335 337 336 335 333 332 331 330 329 330 329 327 326 325 324 323 323 323 324 323 322 320 319 317 316 315 315 315 314 313 312 312 311
4 343 353 50 30 348 85 199 293 292 213 291 310 310 327 359 3 269 275 316 339 335 340 347 336 340 351 332 315 308 306 308 309 313 325 333 330 328 331 334 335 335 334 334 337 339 339 336 335 334 334 335 336 336 337 336 334 332 332 331 331 330 330 329 328 327 326 325 325 324 324 324 324 324 323 322 321 318 317 317 317 316 314 314 314 313
108 343 322 306 261 350 16 8 319 297 257 295 323 334 17 49 282 295 319 331 326 327 341 342 329 336 337 321 315 314 310 311 316 321 326 329 327 328 331 335 335 333 334 337 339 340 340 336 334 333 334 335 336 336 337 336 332 330 331 330 330 330 330 329 330 329 327 327 326 326 326 325 325 326 325 324 324 321 318 319 320 318 317 317 316 315
131 131 271 270 204 92 23 296 242 242 278 323 347 7 9 320 325 335 319 307 315 342 349 330 325 336 337 324 318 317 313 316 323 326 327 328 329 331 332 334 334 333 335 338 338 339 339 336 332 331 332 334 335 336 338 337 332 329 330 330 331 332 331 330 331 329 328 328 327 327 327 326 326 327 326 326 326 323 321 322 321 320 320 320 319 316
201 174 189 238 241 186 218 240 226 111 53 11 61 92 10 315 316 308 291 296 324 357 344 332 333 337 336 325 316 315 318 323 327 330 331 330 330 332 332 331 332 333 335 336 336 336 336 334 331 330 330 332 336 337 338 338 334 329 329 331 332 332 332 331 331 330 329 329 328 328 328 328 328 328 328 329 328 325 323 323 322 322 322 322 321 317
233 50 119 197 283 282 260 268 1 20 357 74 112 114 159 255 268 289 292 309 347 352 343 345 340 332 331 327 323 324 326 327 330 332 332 330 330 331 330 329 331 334 334 334 335 335 334 333 331 330 330 332 335 338 338 338 335 331 330 332 333 333 333 332 331 330 330 330 329 330 329 329 328 329 330 330 330 328 326 325 324 323 322 322 322 319
299 354 61 117 320 315 301 358 32 344 323 83 120 64 273 159 88 24 41 13 357 352 352 353 344 332 331 332 331 327 326 330 334 333 333 333 331 329 329 330 331 332 332 333 334 334 334 333 332 331 331 331 334 337 338 337 336 334 333 334 334 335 335 334 332 332 331 330 330 330 331 330 328 328 330 331 331 331 329 328 327 325 323 323 322 319
284 316 312 303 285 270 269 302 349 332 317 135 122 18 11 69 36 46 55 19 357 356 356 351 342 333 331 336 334 326 326 335 339 337 334 332 328 326 328 330 330 329 330 331 332 334 334 332 331 331 331 331 333 336 336 336 336 337 336 336 336 337 336 335 334 333 331 331 331 331 331 330 328 328 330 330 331 331 331 330 329 326 324 323 321 319
36 4 281 287 295 279 281 319 348 335 311 149 96 29 49 53 9 21 31 8 358 358 350 342 338 334 333 335 335 333 333 338 341 340 333 327 325 326 328 329 329 329 329 330 332 333 333 332 331 331 330 331 333 334 335 335 337 338 339 338 338 339 338 336 334 333 332 332 332 332 331 330 330 330 330 330 330 331 331 330 328 326 325 326 327 326
53 8 237 15 328 291 286 344 3 331 292 282 350 27 79 58 15 14 13 360 359 360 345 333 331 336 339 340 341 343 342 338 339 338 331 324 325 327 328 329 329 328 328 330 332 332 333 333 332 332 330 331 333 334 334 335 337 339 339 339 339 340 339 337 335 333 333 333 333 332 331 330 330 331 332 331 331 331 331 331 332 331 330 331 333 334
152 185 174 159 266 274 285 314 49 277 278 299 337 44 88 55 28 15 3 4 2 353 344 334 332 340 343 342 344 346 344 339 338 335 330 325 325 327 328 329 328 327 328 331 331 331 332 333 333 332 331 331 332 333 333 334 337 339 340 340 341 341 340 338 336 333 332 333 332 331 331 330 330 331 332 332 332 331 330 331 334 337 338 338 339 341